CW0566 Weather Reports


Display with metric or nautical units.
time (UTC)temp
F
wind
direction
speed
MPH
gust
MPH
rain 1hr
in
rain 24hr
in
rain mn
in
humidity
%
barometer
mb
20260508033016 53 315 3.0 8.0 0.00 0.01 0.01 78 1009.6
20260508032016 53 315 4.0 9.0 0.00 0.01 0.01 78 1009.6
20260508031015 53 315 5.0 11.0 0.00 0.01 0.01 78 1009.7
20260508030036 53 315 4.0 14.0 0.00 0.01 0.01 78 1009.6
20260508025016 53 315 6.0 11.0 0.00 0.01 0.01 79 1009.7
20260508024015 52 315 5.0 12.0 0.00 0.01 0.01 81 1009.7
20260508023015 51 315 3.0 6.0 0.00 0.01 0.01 82 1009.6
20260508022015 51 315 2.0 4.0 0.00 0.01 0.01 83 1009.6
20260508021016 50 315 1.0 4.0 0.00 0.01 0.01 82 1009.5
20260508020015 50 315 1.0 3.0 0.00 0.01 0.01 79 1009.2
20260508015015 50 0.0 1.0 0.00 0.01 0.01 77 1009.1
20260508014015 51 315 1.0 2.0 0.00 0.01 0.01 75 1009.1
20260508013015 52 0.0 1.0 0.00 0.01 0.01 73 1008.9
20260508012016 52 0.0 0.0 0.00 0.01 0.01 72 1008.8
20260508011037 53 0.0 2.0 0.00 0.01 0.01 71 1008.6
20260508010015 54 0.0 0.0 0.00 0.01 0.01 69 1008.5
20260508005017 54 0.0 1.0 0.00 0.01 0.01 68 1008.4
20260508004017 55 0.0 0.0 0.00 0.01 0.01 63 1008.3
20260508003017 57 0.0 0.0 0.00 0.01 0.01 61 1008.3
20260508002018 58 0.0 0.0 0.00 0.01 0.01 58 1008.3
20260508001017 60 0.0 0.0 0.00 0.01 0.01 53 1008.3
20260508000038 61 0.0 1.0 0.00 0.01 0.01 50 1008.2
20260507235017 62 0.0 2.0 0.00 0.01 0.01 47 1008.2
20260507234017 63 23 1.0 4.0 0.00 0.01 0.01 45 1008.1
20260507233017 64 0.0 2.0 0.00 0.01 0.01 41 1008.1
20260507232017 65 315 1.0 3.0 0.00 0.01 0.01 39 1008.0
20260507231018 65 0.0 3.0 0.00 0.01 0.01 40 1007.9
20260507230017 66 45 1.0 2.0 0.00 0.01 0.01 39 1007.8
20260507225018 66 315 1.0 2.0 0.00 0.01 0.01 41 1007.7
20260507224017 66 90 2.0 4.0 0.00 0.01 0.01 40 1007.6
20260507223017 67 293 2.0 4.0 0.00 0.01 0.01 40 1007.5
20260507222018 67 0 1.0 3.0 0.00 0.01 0.01 41 1007.7
20260507221017 67 45 1.0 4.0 0.00 0.01 0.01 40 1007.6
20260507220017 67 293 2.0 5.0 0.00 0.01 0.01 40 1007.8
20260507215017 68 338 2.0 6.0 0.00 0.01 0.01 39 1007.8
20260507214017 68 90 2.0 4.0 0.00 0.01 0.01 40 1007.9
20260507213017 68 293 2.0 6.0 0.00 0.01 0.01 43 1007.9
20260507212017 67 68 3.0 8.0 0.00 0.01 0.01 43 1007.8
20260507211017 67 90 1.0 4.0 0.00 0.01 0.01 42 1007.9
20260507210016 67 23 1.0 2.0 0.00 0.01 0.01 44 1007.8
20260507205017 66 90 2.0 7.0 0.00 0.01 0.01 44 1007.8
20260507204017 65 315 2.0 5.0 0.00 0.01 0.01 46 1007.7
20260507203017 64 315 2.0 4.0 0.00 0.01 0.01 47 1007.6
20260507202017 65 315 1.0 4.0 0.00 0.01 0.01 47 1007.6
20260507201037 65 0 1.0 4.0 0.00 0.01 0.01 45 1007.8
20260507200017 66 0 2.0 6.0 0.00 0.01 0.01 46 1007.9
20260507195017 66 68 2.0 6.0 0.00 0.01 0.01 45 1007.9
20260507194017 66 113 3.0 7.0 0.00 0.01 0.01 44 1008.0
20260507193017 66 23 3.0 9.0 0.00 0.01 0.01 45 1008.1
20260507192017 65 68 3.0 6.0 0.00 0.01 0.01 47 1008.2
20260507191018 66 45 1.0 3.0 0.00 0.01 0.01 44 1008.3
20260507190017 66 68 3.0 9.0 0.00 0.01 0.01 47 1008.7
20260507185017 66 90 3.0 7.0 0.00 0.01 0.01 46 1009.0
20260507184016 66 293 3.0 8.0 0.00 0.01 0.01 48 1009.0
20260507183017 65 315 1.0 3.0 0.00 0.01 0.01 52 1009.1
20260507182017 65 90 3.0 5.0 0.00 0.01 0.01 46 1008.9
20260507181017 65 45 3.0 7.0 0.00 0.01 0.01 49 1008.9
20260507180016 64 23 3.0 9.0 0.00 0.01 0.01 48 1009.0
20260507175018 64 23 3.0 7.0 0.00 0.01 0.01 48 1009.4
20260507174016 64 90 3.0 6.0 0.00 0.01 0.01 50 1009.4
20260507173037 63 90 2.0 6.0 0.00 0.01 0.01 54 1009.8
20260507172016 63 338 2.0 6.0 0.00 0.01 0.01 55 1010.0
20260507171037 63 135 3.0 8.0 0.00 0.01 0.01 52 1010.1
20260507170016 63 135 2.0 5.0 0.00 0.01 0.01 54 1010.2
20260507165017 62 90 3.0 8.0 0.00 0.01 0.01 54 1010.3
20260507164016 62 315 2.0 4.0 0.00 0.01 0.01 59 1010.6
20260507163016 60 23 1.0 3.0 0.00 0.01 0.01 62 1010.7
20260507162016 60 113 1.0 5.0 0.00 0.01 0.01 62 1010.8
20260507161036 59 90 1.0 2.0 0.00 0.01 0.01 65 1011.0
20260507160016 59 90 2.0 5.0 0.00 0.01 0.01 64 1011.0
20260507155016 59 315 2.0 5.0 0.00 0.01 0.01 64 1011.0
20260507154016 59 90 2.0 6.0 0.00 0.01 0.01 64 1011.1
20260507153016 59 68 3.0 6.0 0.00 0.01 0.01 62 1011.3
20260507152017 59 23 3.0 9.0 0.00 0.01 0.01 62 1011.3
20260507151016 58 315 2.0 5.0 0.00 0.01 0.01 64 1011.5
20260507150036 58 338 2.0 8.0 0.00 0.01 0.01 63 1011.6
20260507145016 58 0 3.0 8.0 0.00 0.01 0.01 64 1011.5
20260507144017 58 90 2.0 6.0 0.00 0.01 0.01 68 1011.8
20260507143017 58 45 3.0 8.0 0.00 0.01 0.01 70 1011.8
20260507142016 57 45 2.0 7.0 0.00 0.01 0.01 74 1011.7
20260507141017 57 315 2.0 8.0 0.00 0.01 0.01 75 1011.8
20260507140016 56 315 3.0 6.0 0.00 0.01 0.01 76 1011.9
20260507135016 55 315 2.0 4.0 0.00 0.01 0.01 80 1012.0
20260507134016 55 315 2.0 6.0 0.00 0.01 0.01 81 1012.1
20260507133058 55 315 1.0 4.0 0.00 0.01 0.01 82 1012.1
20260507132016 54 315 2.0 6.0 0.00 0.01 0.01 82 1012.0
20260507131016 54 0 1.0 4.0 0.00 0.01 0.01 83 1012.0
20260507130016 54 23 2.0 7.0 0.00 0.01 0.01 85 1012.0
20260507125016 54 293 2.0 8.0 0.00 0.01 0.01 88 1012.1
20260507124016 53 315 2.0 4.0 0.00 0.01 0.01 90 1012.0
20260507123036 53 293 1.0 2.0 0.00 0.01 0.01 90 1011.8
20260507122016 53 293 1.0 3.0 0.00 0.01 0.01 91 1011.6
20260507121017 52 293 1.0 2.0 0.00 0.01 0.01 91 1011.7
20260507120015 52 0.0 1.0 0.00 0.01 0.01 91 1011.7
20260507115036 52 315 1.0 3.0 0.00 0.01 0.01 91 1011.6
20260507114016 52 0.0 0.0 0.00 0.01 0.01 91 1011.6
20260507113016 52 0.0 1.0 0.00 0.01 0.01 91 1011.7
20260507112015 52 0.0 1.0 0.00 0.01 0.01 91 1011.6
20260507111016 51 0.0 2.0 0.00 0.01 0.01 91 1011.4
20260507110016 51 0.0 2.0 0.00 0.01 0.01 91 1011.3
20260507105036 51 315 1.0 2.0 0.00 0.01 0.01 91 1011.1
20260507104016 51 0.0 1.0 0.00 0.01 0.01 90 1010.8
20260507103016 51 0.0 2.0 0.00 0.01 0.01 90 1011.0
20260507102015 51 0.0 1.0 0.00 0.01 0.01 89 1010.8
20260507101015 51 315 1.0 2.0 0.00 0.01 0.01 88 1010.8
20260507100056 51 0.0 1.0 0.00 0.01 0.01 88 1010.6
20260507095016 51 315 1.0 2.0 0.00 0.01 0.01 88 1010.6
20260507094016 51 315 1.0 3.0 0.00 0.01 0.01 88 1010.7
20260507093015 51 315 1.0 4.0 0.00 0.01 0.01 88 1010.7
20260507092016 51 0.0 1.0 0.00 0.01 0.01 88 1010.7
20260507091015 51 0.0 2.0 0.00 0.01 0.01 88 1010.5
20260507090015 51 315 1.0 3.0 0.00 0.01 0.01 88 1010.2
20260507085015 51 315 1.0 4.0 0.00 0.01 0.01 88 1010.3
20260507084018 51 315 1.0 4.0 0.00 0.01 0.01 88 1010.4
20260507083038 51 315 2.0 5.0 0.00 0.01 0.01 89 1010.3
20260507082017 51 315 2.0 6.0 0.00 0.01 0.01 89 1010.4
20260507081017 51 315 3.0 9.0 0.00 0.01 0.01 90 1010.2
20260507080017 51 315 2.0 8.0 0.00 0.01 0.01 91 1010.1
20260507075017 51 315 2.0 5.0 0.00 0.01 0.01 91 1010.2
20260507074017 51 315 3.0 6.0 0.00 0.01 0.01 90 1010.1
20260507073017 51 315 3.0 6.0 0.00 0.01 0.01 90 1010.3
20260507072018 51 315 3.0 11.0 0.00 0.01 0.01 89 1010.3
20260507071017 51 315 5.0 13.0 0.00 0.01 0.01 89 1010.4
20260507070017 51 315 3.0 9.0 0.00 0.01 0.01 90 1010.4
20260507065018 52 315 2.0 13.0 0.00 0.01 0.01 90 1010.9
20260507064017 52 315 2.0 6.0 0.01 0.01 0.01 90 1010.2
20260507063018 53 315 3.0 6.0 0.01 0.01 0.01 90 1010.0
20260507062017 54 315 2.0 5.0 0.01 0.01 0.01 90 1010.2
20260507061017 55 315 3.0 5.0 0.01 0.01 0.01 88 1009.9
20260507060018 56 23 4.0 10.0 0.01 0.01 0.01 87 1009.9
20260507055017 57 315 3.0 8.0 0.01 0.01 0.01 85 1009.8
20260507054017 58 315 5.0 11.0 0.00 0.00 0.00 83 1009.8
20260507053017 59 315 3.0 10.0 0.00 0.00 0.00 82 1009.4
20260507052037 60 90 3.0 10.0 0.00 0.00 0.00 84 1009.4
20260507051018 61 68 3.0 7.0 0.00 0.00 0.00 84 1009.4
20260507050037 61 68 3.0 7.0 0.00 0.00 0.00 84 1009.5
20260507045017 63 90 3.0 8.0 0.00 0.00 0.00 85 1008.9
20260507044017 63 45 1.0 6.0 0.00 0.00 0.00 86 1008.8
20260507043017 63 248 1.0 2.0 0.00 0.00 0.00 85 1009.0
20260507042017 64 0.0 2.0 0.00 0.00 0.00 85 1008.8
20260507041017 64 0.0 2.0 0.00 0.00 0.00 85 1008.8
20260507040017 64 338 1.0 3.0 0.00 0.00 0.00 85 1008.8
20260507035016 64 0 1.0 4.0 0.00 0.00 0.00 86 1008.6
20260507034036 65 23 2.0 7.0 0.00 0.00 0.00 88 1009.0